Location: Lachaise
(45.8833°N, 1.8500°E)
Time: 01:01:26
(UTC+00:00)

IRIDIUM 103 - Pass Details

Date: 07 June 2020
Orbit: 776 x 779 km, 86.4° (Epoch: 11 July)

Event Time Altitude Azimuth Distance (km) Brightness Sun altitude
Exits shadow 02:25:49 16° 193° (SSW) 1,953 5.8 -12.9°
Maximum altitude 02:30:02 69° 275° (W) 835 4.4 -12.5°
Drops below altitude 10° 02:35:16 10° 359° (N) 2,342 7.6 -11.9°
Sets 02:37:39 0° 2° (N) 3,274 8.5 -11.7°
